Regional Weather Roundup
Issued by NWS

Home | Current Version | Previous Version | Graphics & Text | Print | Product List | Glossary On
Versions: 1 2 3 4 5 6 7 8 9 10 11 12 13 14 15 16 17 18 19 20 21 22 23 24 25 26 27 28 29 30 31 32 33 34 35 36 37 38 39 40 41 42 43 44 45 46 47 48 49 50
495
ASUS43 KOAX 181210
RWRNE

WEATHER ROUNDUP FOR NEBRASKA
NATIONAL WEATHER SERVICE OMAHA NE
600 AM CST THU JAN 18 2018

NOTES: SATELLITE DATA IS BEING USED TO AUGMENT CLOUD COVER ABOVE
       12000 FEET.
       "FAIR" INDICATES FEW OR NO CLOUDS BELOW 12,000 FEET WITH NO
       SIGNIFICANT WEATHER AND/OR OBSTRUCTIONS TO VISIBILITY.


NEZ001>004-019>022-054>056-181300-
NEBRASKA PANHANDLE

CITY           SKY/WX    TMP DP  RH WIND       PRES   REMARKS
SCOTTSBLUFF    PTCLDY    18  14  84 CALM      30.04S
6HR MIN TEMP:  15; 6HR MAX TEMP:  23;

ALLIANCE       CLEAR     15  13  91 W6        30.00F WCI   6
6HR MIN TEMP:   8; 6HR MAX TEMP:  16;

CHADRON        CLEAR     25  19  78 SW5       29.99F WCI  19
6HR MIN TEMP:  20; 6HR MAX TEMP:  28;

GORDON         FAIR      23  17  79 CALM      29.96F
6HR MIN TEMP:  22; 6HR MAX TEMP:  31;

KIMBALL        PTCLDY    29  19  65 W12       30.06F WCI  20
SIDNEY         PTCLDY    24  18  77 W8        30.06F WCI  15
6HR MIN TEMP:  19; 6HR MAX TEMP:  25;

$$

NEZ057>060-069>072-079>082-181300-
SOUTHWEST NEBRASKA

CITY           SKY/WX    TMP DP  RH WIND       PRES   REMARKS
NORTH PLATTE   CLEAR     15  10  80 NW5       30.07F WCI   8
6HR MIN TEMP:  12; 6HR MAX TEMP:  17;

IMPERIAL       CLEAR     23  17  78 W8        30.07F WCI  14
6HR MIN TEMP:  18; 6HR MAX TEMP:  23;

LEXINGTON      CLEAR     17  13  84 W5        30.07F WCI  10
MCCOOK         CLEAR     15  12  88 W6        30.10F WCI   6
6HR MIN TEMP:  14; 6HR MAX TEMP:  20;

OGALLALA       PTCLDY    21  17  86 CALM      30.06F
$$

NEZ005>010-023>029-035>040-094-181300-
NORTH CENTRAL NEBRASKA

CITY           SKY/WX    TMP DP  RH WIND       PRES   REMARKS
VALENTINE      CLEAR     22  17  81 S5        29.95F WCI  16
6HR MIN TEMP:  19; 6HR MAX TEMP:  26;

AINSWORTH      CLEAR     27  21  80 SW9       29.97F WCI  18
BROKEN BOW     CLEAR     16   9  74 SW3       30.02F
6HR MIN TEMP:  11; 6HR MAX TEMP:  29;

O`NEILL        PTCLDY    20  17  88 SW7       30.00S WCI  11
ORD            CLEAR     11   8  88 SE3       30.02F
6HR MIN TEMP:  11; 6HR MAX TEMP:  23;

THEDFORD       CLEAR     29  21  71 W7        30.00F WCI  22
$$

NEZ041-046>049-061>064-073>077-083>087-181300-
SOUTH CENTRAL NEBRASKA

CITY           SKY/WX    TMP DP  RH WIND       PRES   REMARKS
GRAND ISLAND   CLOUDY    14  10  84 SW8       30.07F WCI   3
6HR MIN TEMP:  12; 6HR MAX TEMP:  20;

AURORA         CLOUDY    13   8  80 SW8       30.09F WCI   2
HASTINGS       CLOUDY    16   9  74 SW3       30.09F
6HR MIN TEMP:  13; 6HR MAX TEMP:  20;

HEBRON         CLOUDY    17   8  68 SW5       30.15S WCI  10
HOLDREGE       CLOUDY    17  13  84 SW5       30.07F WCI  10
KEARNEY        CLOUDY    15  11  83 SW7       30.08F WCI   5
YORK           CLOUDY    12   9  85 CALM      30.11F
$$

NEZ011>018-030>034-042>045-181300-
NORTHEAST NEBRASKA

CITY           SKY/WX    TMP DP  RH WIND       PRES   REMARKS
NORFOLK        CLOUDY    14  11  87 S3        30.03F
6HR MIN TEMP:  13; 6HR MAX TEMP:  23;

ALBION         CLOUDY    22  15  75 CALM      30.04F
BLAIR          CLOUDY    20  11  68 SW7       30.11S WCI  11
COLUMBUS       CLOUDY    18  12  77 SW6       30.09F WCI  10
FREMONT        CLOUDY    19  11  73 S5        30.11F WCI  12
TEKAMAH        CLOUDY    14   8  77 S10       30.11F WCI   1
6HR MIN TEMP:  13; 6HR MAX TEMP:  17;

WAYNE          CLOUDY    18  16  91 SW5       30.04F WCI  11
$$

NEZ050>053-065>068-078-088>093-181300-
SOUTHEAST NEBRASKA

CITY           SKY/WX    TMP DP  RH WIND       PRES   REMARKS
LINCOLN        CLOUDY    14   7  73 S6        30.16S WCI   5
6HR MIN TEMP:  13; 6HR MAX TEMP:  21;

OMAHA EPPLEY   CLOUDY    15   8  73 SE10      30.15F WCI   2
6HR MIN TEMP:  12; 6HR MAX TEMP:  16;

BEATRICE       CLOUDY    16   8  71 S8        30.16F WCI   5
FALLS CITY     CLOUDY    12   5  73 S5        30.22F WCI   4
6HR MIN TEMP:  10; 6HR MAX TEMP:  19;

NEBRASKA CITY  CLOUDY    19  10  70 S14       30.15F WCI   5
PLATTSMOUTH    CLOUDY    17   9  71 SW5       30.16R WCI  10
$$

NEZ044-045-051>053-067-181300-
OMAHA AREA

CITY           SKY/WX    TMP DP  RH WIND       PRES   REMARKS
OMAHA EPPLEY   CLOUDY    15   8  73 SE10      30.15F WCI   2
6HR MIN TEMP:  12; 6HR MAX TEMP:  16;

BLAIR          CLOUDY    20  11  68 SW7       30.11S WCI  11
FREMONT        CLOUDY    19  11  73 S5        30.11F WCI  12
MILLARD        CLOUDY    18  11  73 SE3       30.15S
OFFUTT AFB     CLOUDY    10   5  80 CALM      30.15F
PLATTSMOUTH    CLOUDY    17   9  71 SW5       30.16R WCI  10
WAHOO          FAIR      17   9  70 SW5       30.13S WCI  10
$$




USA.gov is the U.S. government's official web portal to all federal, state and local government web resources and services.